Location: Berville
(49.1893°N, 2.0748°E)
Time: 20:01:35
(UTC+00:00)

FENGYUN 1C DEB - Pass Details

Date: 05 March 2024
Orbit: 768 x 960 km, 99.0° (Epoch: 13 April)

Event Time Altitude Azimuth Distance (km) Brightness Sun altitude
Exits shadow 21:20:20 52° 288° (WNW) 1,164 ? -34.6°
Drops below altitude 10° 21:25:25 10° 337° (NNW) 2,643 ? -35.2°
Sets 21:27:52 0° 342° (NNW) 3,567 ? -35.5°
